SV1LH-1 Melissia GR current weather conditions

sailwx.info

Wind from 247 at 0 knots gusting 0

Air temperature 10.0° C
Dewpoint 6.3° C

Last reported at 2014-Nov-27 09:49 UTC.
Time now 2014-Nov-27 10:37 UTC

Location: N 38°03' E 023°51'.
View on Google Maps.

See reports from other nearby stations

  
Tides and Currents Weather Stations Pressure Air Temp Water Temp Dewpoint Dewpoint Depression Visibility Wind Speed Wind Dir Waves Ship Positions
date/time (UTC)wind fromknots sea level pressurealtimeterstation pressurevisibilityair tempwater tempwave heightnotes
2014-Nov-27 09:49 247 0 gusting 0 10.0
2014-Nov-27 09:34 247 10.0
2014-Nov-27 09:19 10.6
2014-Nov-27 09:04 090 10.0
2014-Nov-27 08:55 270 9.4
2014-Nov-27 08:47 270 0 gusting 1 9.4
2014-Nov-27 08:45 225 9.4
2014-Nov-27 08:34 202 9.4
2014-Nov-27 08:19 202 0 gusting 0 8.9
2014-Nov-27 08:04 135 8.9
2014-Nov-27 07:55 315 8.3
2014-Nov-27 07:50 135 8.3
2014-Nov-27 07:49 135 8.3
2014-Nov-27 07:45 180 8.3
2014-Nov-27 07:34 292 8.3
2014-Nov-27 07:19 315 7.8
2014-Nov-27 07:04 292 0 gusting 0 7.2
2014-Nov-27 06:55 067 7.2
2014-Nov-27 06:50 067 7.2
2014-Nov-27 06:49 067 7.2
2014-Nov-27 06:45 090 7.2
2014-Nov-27 06:34 090 6.7
2014-Nov-27 06:19 045 6.7
2014-Nov-27 06:04 337 6.7
2014-Nov-27 05:55 292 0 gusting 0 6.7
2014-Nov-27 05:50 022 6.7
2014-Nov-27 05:49 022 6.7
2014-Nov-27 05:45 045 6.7
2014-Nov-27 05:34 090 6.7
2014-Nov-27 05:19 247 6.7
2014-Nov-27 05:04 180 6.1
2014-Nov-27 04:55 112 1 gusting 2 6.1
2014-Nov-27 04:50 090 1 gusting 2 6.1
2014-Nov-27 04:49 112 1 gusting 2 6.1
2014-Nov-27 04:45 112 1 gusting 1 6.1
2014-Nov-27 04:34 045 6.1
2014-Nov-27 04:19 315 6.1
2014-Nov-27 04:04 090 6.1
2014-Nov-27 03:55 090 6.1
2014-Nov-27 03:50 112 0 gusting 1 6.1
2014-Nov-27 03:49 112 0 gusting 1 6.1
2014-Nov-27 03:45 090 6.1
2014-Nov-27 03:34 270 6.1
2014-Nov-27 03:19 112 6.1
2014-Nov-27 03:04 045 6.1
2014-Nov-27 02:55 090 6.1
2014-Nov-27 02:50 090 6.1
2014-Nov-27 02:49 090 6.1
2014-Nov-27 02:45 135 6.1
2014-Nov-27 02:34 6.1
2014-Nov-27 02:19 090 6.1
2014-Nov-27 02:04 090 6.1
2014-Nov-27 01:55 180 6.1
2014-Nov-27 01:50 180 6.1
2014-Nov-27 01:49 202 6.1
2014-Nov-27 01:45 247 1 gusting 1 6.1
2014-Nov-27 01:34 6.1
2014-Nov-27 01:19 045 6.1
2014-Nov-27 01:04 112 6.1
2014-Nov-27 00:55 090 6.1
2014-Nov-27 00:50 112 6.1
2014-Nov-27 00:49 112 6.1
2014-Nov-27 00:45 157 0 gusting 0 6.1
2014-Nov-27 00:34 112 6.1
2014-Nov-27 00:19 6.1
2014-Nov-27 00:04 225 6.1
2014-Nov-26 23:55 225 6.7
2014-Nov-26 23:50 225 6.7
2014-Nov-26 23:49 247 0 gusting 0 6.7
2014-Nov-26 23:45 270 0 gusting 1 6.7
2014-Nov-26 23:34 247 0 gusting 0 6.7
2014-Nov-26 23:19 225 6.7
2014-Nov-26 23:04 225 1 gusting 2 6.7
2014-Nov-26 22:55 157 0 gusting 1 6.7
2014-Nov-26 22:50 225 6.7
2014-Nov-26 22:49 225 6.7
2014-Nov-26 22:45 202 0 gusting 1 6.7
2014-Nov-26 22:34 270 1 gusting 1 6.7
2014-Nov-26 22:19 225 2 gusting 3 6.7
2014-Nov-26 22:04 337 6.7
2014-Nov-26 21:55 315 0 gusting 2 6.7
2014-Nov-26 21:50 247 1 gusting 2 6.7
2014-Nov-26 21:49 247 0 gusting 2 6.7
2014-Nov-26 21:45 270 0 gusting 1 6.7
2014-Nov-26 21:34 202 1 gusting 2 6.7
2014-Nov-26 21:19 180 0 gusting 1 6.7
2014-Nov-26 21:04 022 1 gusting 2 6.7
2014-Nov-26 20:58 292 1 gusting 2 6.7
2014-Nov-26 20:55 292 0 gusting 1 6.7
2014-Nov-26 20:50 270 6.7
2014-Nov-26 20:49 045 0 gusting 1 6.7
2014-Nov-26 20:45 6.7
2014-Nov-26 20:34 067 0 gusting 2 6.7
2014-Nov-26 20:19 315 2 gusting 5 6.7
2014-Nov-26 20:04 6.7
2014-Nov-26 19:55 337 6.7
2014-Nov-26 19:50 6.7
2014-Nov-26 19:49 045 2 gusting 6 6.7
2014-Nov-26 19:45 315 1 gusting 3 6.7
2014-Nov-26 19:34 067 3 gusting 4 6.7
2014-Nov-26 19:19 022 0 gusting 1 6.7
2014-Nov-26 19:04 022 4 gusting 6 6.7
2014-Nov-26 18:55 6.7
2014-Nov-26 18:50 022 4 gusting 5 6.7
2014-Nov-26 18:49 045 2 gusting 5 6.7
2014-Nov-26 18:45 180 1 gusting 3 6.1
2014-Nov-26 18:34 090 3 gusting 6 6.1
2014-Nov-26 18:19 6.1
2014-Nov-26 18:04 045 4 gusting 6 6.7
2014-Nov-26 17:55 6.7
2014-Nov-26 17:50 6.7
2014-Nov-26 17:49 157 3 gusting 6 6.7
2014-Nov-26 17:45 6.7
2014-Nov-26 17:34 6.7
2014-Nov-26 17:19 067 5 gusting 8 6.7
2014-Nov-26 17:04 022 4 gusting 6 6.7
2014-Nov-26 16:55 045 1 gusting 3 6.7
2014-Nov-26 16:50 135 2 gusting 6 6.7
2014-Nov-26 16:49 045 4 gusting 6 6.7
2014-Nov-26 16:45 090 2 gusting 4 6.7
2014-Nov-26 16:34 022 5 gusting 8 6.7
2014-Nov-26 16:19 6.7
2014-Nov-26 16:04 315 2 gusting 5 6.7
2014-Nov-26 15:55 022 3 gusting 5 6.7
2014-Nov-26 15:50 045 1 gusting 3 6.7
2014-Nov-26 15:49 045 1 gusting 3 6.7
2014-Nov-26 15:45 022 1 gusting 4 6.7
2014-Nov-26 15:34 045 4 gusting 6 6.7
2014-Nov-26 15:19 292 3 gusting 6 6.1
2014-Nov-26 15:04 045 0 gusting 2 6.1
2014-Nov-26 14:55 315 3 gusting 6 6.7
2014-Nov-26 14:50 067 1 gusting 2 6.7
2014-Nov-26 14:49 022 2 gusting 3 6.7
2014-Nov-26 14:45 6.7
2014-Nov-26 14:34 022 3 gusting 5 6.7
2014-Nov-26 14:19 022 2 gusting 5 6.7
2014-Nov-26 14:04 022 3 gusting 5 6.7
2014-Nov-26 13:55 022 3 gusting 5 6.7
2014-Nov-26 13:34 6.7
2014-Nov-26 13:19 067 3 gusting 5 7.2
2014-Nov-26 13:04 7.2
2014-Nov-26 12:55 045 3 gusting 6 7.2
2014-Nov-26 12:50 022 1 gusting 2 7.8
2014-Nov-26 12:49 337 2 gusting 4 7.8
2014-Nov-26 12:45 7.8
2014-Nov-26 12:34 045 2 gusting 6 8.3
2014-Nov-26 12:19 337 1 gusting 3 8.3
2014-Nov-26 12:04 8.9
2014-Nov-26 11:49 045 2 gusting 4 8.3
2014-Nov-26 11:34 8.3
2014-Nov-26 11:19 337 1 gusting 3 8.3
2014-Nov-26 11:04 8.3
2014-Nov-26 10:55 8.9
2014-Nov-26 10:50 045 1 gusting 1 8.9
2014-Nov-26 10:49 045 3 gusting 4 8.9
2014-Nov-26 10:45 8.3
2014-Nov-26 10:34 8.3
2014-Nov-26 10:19 045 2 gusting 4 7.8
2014-Nov-26 10:04 067 3 gusting 5 8.3
2014-Nov-26 09:55 315 2 gusting 6 8.9
2014-Nov-26 09:50 022 2 gusting 5 8.9
2014-Nov-26 09:49 045 2 gusting 4 8.9
2014-Nov-26 09:45 022 1 gusting 3 8.9
2014-Nov-26 09:34 090 1 gusting 1 8.9
2014-Nov-26 09:19 112 2 gusting 4 8.9
2014-Nov-26 09:04 045 3 gusting 6 8.9
2014-Nov-26 08:55 7.8
2014-Nov-26 08:50 022 5 gusting 8 7.2
2014-Nov-26 08:49 337 2 gusting 5 7.2
2014-Nov-26 08:34 045 0 gusting 2 7.2
2014-Nov-26 08:19 7.2
2014-Nov-26 08:04 6.7
2014-Nov-26 07:55 045 2 gusting 4 6.7
2014-Nov-26 07:50 337 2 gusting 4 7.2
2014-Nov-26 07:49 045 2 gusting 3 7.2
2014-Nov-26 07:45 045 2 gusting 4 7.2
2014-Nov-26 07:34 315 6.7
2014-Nov-26 07:19 6.7
2014-Nov-26 07:04 045 2 gusting 4 6.7
2014-Nov-26 06:55 315 6.7
2014-Nov-26 06:50 6.7
2014-Nov-26 06:49 045 1 gusting 1 6.7
2014-Nov-26 06:45 6.7
2014-Nov-26 06:34 6.7
2014-Nov-26 06:19 067 1 gusting 3 6.1
2014-Nov-26 06:04 6.1
2014-Nov-26 05:55 022 3 gusting 4 6.1
2014-Nov-26 05:50 6.1
2014-Nov-26 05:49 337 2 gusting 3 6.1
2014-Nov-26 05:45 022 0 gusting 1 6.1
2014-Nov-26 05:34 6.1
2014-Nov-26 05:19 6.1
2014-Nov-26 05:04 6.1
2014-Nov-26 04:55 6.1
2014-Nov-26 04:50 315 0 gusting 1 6.1
2014-Nov-26 04:45 337 2 gusting 3 6.1
2014-Nov-26 04:40 292 6.1
2014-Nov-26 04:35 6.1
2014-Nov-26 04:30 090 2 gusting 3 6.1
2014-Nov-26 04:25 337 1 gusting 2 6.1
2014-Nov-26 04:20 315 2 gusting 3 6.1
2014-Nov-26 04:15 315 2 gusting 4 6.1
2014-Nov-26 04:10 270 1 gusting 3 6.1
2014-Nov-26 04:05 270 1 gusting 2 6.1
2014-Nov-26 04:00 337 1 gusting 2 6.1
2014-Nov-26 03:55 045 1 gusting 3 6.1
2014-Nov-26 03:50 045 2 gusting 4 6.1
2014-Nov-26 03:49 090 2 gusting 3 6.1
2014-Nov-26 03:45 045 2 gusting 5 6.1
2014-Nov-26 03:34 045 0 gusting 1 6.1
2014-Nov-26 03:19 315 0 gusting 1 6.1
2014-Nov-26 03:04 6.1
2014-Nov-26 02:55 315 1 gusting 2 6.1
2014-Nov-26 02:50 6.1
2014-Nov-26 02:49 337 2 gusting 3 6.1
2014-Nov-26 02:45 6.1
2014-Nov-26 02:34 6.1
2014-Nov-26 02:19 022 2 gusting 3 6.1
2014-Nov-26 02:04 112 1 gusting 4 6.1
2014-Nov-26 01:55 045 2 gusting 5 6.1
2014-Nov-26 01:50 337 4 gusting 6 6.1
2014-Nov-26 01:49 045 3 gusting 6 6.1
2014-Nov-26 01:45 337 2 gusting 3 5.6
2014-Nov-26 01:34 067 3 gusting 5 5.6
2014-Nov-26 01:19 135 3 gusting 5 5.6
2014-Nov-26 01:04 045 2 gusting 5 5.6
2014-Nov-26 00:55 045 1 gusting 2 5.6
2014-Nov-26 00:50 022 3 gusting 6 5.6
2014-Nov-26 00:49 337 3 gusting 6 5.6
2014-Nov-26 00:45 5.6
2014-Nov-26 00:34 5.6
2014-Nov-26 00:19 5.0
2014-Nov-26 00:04 5.0
2014-Nov-25 23:55 5.0
2014-Nov-25 23:50 5.0
2014-Nov-25 23:45 022 5 gusting 6 5.0
2014-Nov-25 23:40 022 2 gusting 3 5.0
2014-Nov-25 23:35 045 2 gusting 4 5.0
2014-Nov-25 23:30 5.6
2014-Nov-25 23:25 315 3 gusting 5 5.6
2014-Nov-25 23:20 315 2 gusting 4 5.6
2014-Nov-25 23:15 022 2 gusting 5 5.6
2014-Nov-25 23:10 022 3 gusting 5 5.6
2014-Nov-25 23:05 180 2 gusting 3 5.6
2014-Nov-25 23:00 337 4 gusting 6 5.6
2014-Nov-25 22:55 5.6
2014-Nov-25 22:50 5.6
2014-Nov-25 22:49 022 3 gusting 5 5.6
2014-Nov-25 22:45 5.6
2014-Nov-25 22:34 315 2 gusting 5 5.6
2014-Nov-25 22:19 5.6
2014-Nov-25 22:04 5.6
2014-Nov-25 21:55 090 3 gusting 6 5.6
2014-Nov-25 21:50 5.6
2014-Nov-25 21:49 5.6
2014-Nov-25 21:45 337 3 gusting 6 5.6
2014-Nov-25 21:34 315 3 gusting 5 5.6
2014-Nov-25 21:19 5.6
2014-Nov-25 21:04 022 4 gusting 6 5.6
2014-Nov-25 20:55 337 5 gusting 7 5.6
2014-Nov-25 20:50 067 4 gusting 10 5.6
2014-Nov-25 20:49 022 5 gusting 7 5.6
2014-Nov-25 20:45 022 6 gusting 10 5.6
2014-Nov-25 20:34 045 5 gusting 6 5.6
2014-Nov-25 20:19 045 4 gusting 6 5.6
2014-Nov-25 20:04 5.6
2014-Nov-25 19:55 5.6
2014-Nov-25 19:50 022 5.6
2014-Nov-25 19:45 022 4 gusting 7 5.6
2014-Nov-25 19:40 022 3 gusting 5 5.6
2014-Nov-25 19:35 022 4 gusting 6 5.6
2014-Nov-25 19:30 5.6
2014-Nov-25 19:25 045 5 gusting 6 5.6
2014-Nov-25 19:20 045 4 gusting 6 5.6
2014-Nov-25 19:15 067 2 gusting 4 5.6
2014-Nov-25 19:10 022 6 gusting 7 5.6
2014-Nov-25 19:05 045 4 gusting 8 5.6
2014-Nov-25 19:00 067 6 gusting 10 5.6
2014-Nov-25 18:55 022 4 gusting 6 5.6
2014-Nov-25 18:50 337 2 gusting 4 5.6
2014-Nov-25 18:49 022 4 gusting 6 5.6
2014-Nov-25 18:45 067 4 gusting 6 5.6
2014-Nov-25 18:34 067 4 gusting 6 5.6
2014-Nov-25 18:19 5.6
2014-Nov-25 18:04 045 5 gusting 7 5.6
2014-Nov-25 17:55 090 4 gusting 6 5.6
2014-Nov-25 17:50 022 5 gusting 7 5.6
2014-Nov-25 17:45 022 3 gusting 6 5.6
2014-Nov-25 17:40 022 3 gusting 5 6.1
2014-Nov-25 17:35 337 6 gusting 8 6.1
2014-Nov-25 17:30 045 6 gusting 8 6.1
2014-Nov-25 17:25 022 4 gusting 6 5.6
2014-Nov-25 17:20 337 5 gusting 8 5.6
2014-Nov-25 17:15 045 3 gusting 5 5.6
2014-Nov-25 17:10 045 5 gusting 6 5.6
2014-Nov-25 17:05 045 2 gusting 4 5.6
2014-Nov-25 17:00 090 2 gusting 4 5.6
2014-Nov-25 16:55 337 4 gusting 6 5.6
2014-Nov-25 16:50 022 6 gusting 10 5.6
2014-Nov-25 16:45 067 1 gusting 2 5.6
2014-Nov-25 16:40 022 6 gusting 8 6.1
2014-Nov-25 16:35 022 4 gusting 6 6.1
2014-Nov-25 16:30 5.6
2014-Nov-25 16:25 045 3 gusting 5 5.6
2014-Nov-25 16:20 315 5 gusting 11 5.6
2014-Nov-25 16:15 5.6
2014-Nov-25 16:10 337 6 gusting 8 5.6
2014-Nov-25 16:05 045 6 gusting 9 5.6
2014-Nov-25 16:00 067 6 gusting 10 5.6
2014-Nov-25 15:55 5.6
2014-Nov-25 15:50 5.6
2014-Nov-25 15:45 045 2 gusting 3 5.6
2014-Nov-25 15:40 135 3 gusting 6 5.6
2014-Nov-25 15:35 337 4 gusting 10 5.6
2014-Nov-25 15:30 022 1 gusting 3 5.6
2014-Nov-25 15:25 045 4 gusting 7 6.1
2014-Nov-25 15:19 067 4 gusting 7 6.1
2014-Nov-25 15:15 6.1
2014-Nov-25 15:10 067 3 gusting 7 6.1
2014-Nov-25 15:05 067 2 gusting 4 6.1
2014-Nov-25 15:00 067 4 gusting 9 6.7
2014-Nov-25 14:55 045 6 gusting 12 6.7
2014-Nov-25 14:50 022 5 gusting 9 6.7
2014-Nov-25 14:49 7.2
2014-Nov-25 14:45 7.2
2014-Nov-25 14:34 045 5 gusting 10 7.2
2014-Nov-25 14:19 022 6 gusting 11 7.2
2014-Nov-25 14:04 7.2
2014-Nov-25 13:55 022 7 gusting 13 7.8
2014-Nov-25 13:50 7.8
2014-Nov-25 13:49 7.8
2014-Nov-25 13:45 8.3
2014-Nov-25 13:34 045 5 gusting 7 8.3
2014-Nov-25 13:19 022 6 gusting 11 10.6
2014-Nov-25 13:04 045 6 gusting 8 10.0
2014-Nov-25 12:55 067 7 gusting 13 10.0
2014-Nov-25 12:50 045 5 gusting 11 11.1
2014-Nov-25 12:49 11.1
2014-Nov-25 12:45 135 5 gusting 7 11.1
2014-Nov-25 12:34 045 6 gusting 9 11.1
2014-Nov-25 12:19 022 6 gusting 9 11.7
2014-Nov-25 12:04 022 6 gusting 14 11.1
2014-Nov-25 11:55 11.1
2014-Nov-25 11:50 022 3 gusting 6 11.7
2014-Nov-25 11:49 11.7
2014-Nov-25 11:45 11.1
2014-Nov-25 11:34 045 10 gusting 15 11.7
2014-Nov-25 11:19 045 11 gusting 15 11.1
2014-Nov-25 11:04 337 14 gusting 19 11.1
2014-Nov-25 10:55 022 7 gusting 12 11.7
2014-Nov-25 10:50 067 9 gusting 19 11.7
2014-Nov-25 10:49 045 8 gusting 17 11.7
2014-Nov-25 10:45 12.2
2014-Nov-25 10:34 045 7 gusting 10 12.2
2014-Nov-25 10:19 045 9 gusting 19 11.7
2014-Nov-25 10:04 315 6 gusting 11 11.7